Tracking 35237 objects as of 6-Sep-2026
HD Live streaming from Space Station
objects crossing your sky now

SZ-14 MODULE DEB


SZ-14 MODULE DEB is no longer on orbit


NORAD ID: 54709
Int'l Code: 2022-060M
Launch date: June 5, 2022
Source: People's Republic of China (PRC)
Launch site: Jiuquan Satellite Launch Center, China (JSC)
Decay date: 2022-12-22

Note: This is SATELLITE DEBRIS
Your satellite tracking list
Your tracking list is empty




NASA's NSSDC Master Catalog

Two Line Element Set (TLE):
1 54709U 22060M   22353.83998404  .05740568  11492+0  11737-1 0  9996
2 54709  41.4625 166.7212 0011760 307.1795  52.7986 16.06447328  2179
Source of the keplerian elements: AFSPC